Weather Service Report


007 
ASUS43 KFSD 020810
RWRSD 

WEATHER ROUNDUP FOR SOUTH DAKOTA
NATIONAL WEATHER SERVICE SIOUX FALLS SD
300 AM CDT THU JUL 02 2015

NOTE: "FAIR" INDICATES FEW OR NO CLOUDS BELOW 12,000 FEET WITH NO
SIGNIFICANT WEATHER AND/OR OBSTRUCTIONS TO VISIBILITY.


SDZ001>005-009-010-012>017-020900-
NORTHWEST AND NORTH CENTRAL SOUTH DAKOTA
  
CITY           SKY/WX    TMP DP  RH WIND       PRES   REMARKS
BUFFALO          N/A     59  58  96 W10       29.98R                  
FAITH            N/A     64  60  87 S5        29.99F                  
MOBRIDGE       MOCLDY    68  68 100 SE5       29.92S                  
$$
 
SDZ012>016-024>037-041>051-057-063-072>074-020900-
SOUTHWEST AND SOUTH CENTRAL SOUTH DAKOTA
  
CITY           SKY/WX    TMP DP  RH WIND       PRES   REMARKS
RAPID CTY ARPT CLOUDY    63  61  93 SW6       30.03F                  
PIERRE         CLOUDY    68  66  93 S7        29.93S                  
CUSTER         CLOUDY    57  54  89 W3        30.18F                  
ELLSWORTH AFB  MOCLDY    64  63  98 W7        30.02F                  
PHILIP         CLOUDY    67  65  93 W3        29.97S                  
PINE RIDGE     LGT RAIN  64  61  90 SW14      30.07F                  
SPEARFISH      FAIR      61  57  88 N6        30.08S                  
WINNER         CLOUDY    69  63  81 SE3       29.97R                  
$$
 
SDZ004>011-016>023-039-040-020900-
NORTHEAST SOUTH DAKOTA
  
CITY           SKY/WX    TMP DP  RH WIND       PRES   REMARKS
ABERDEEN       CLOUDY    63  58  83 S6        29.96R                  
WATERTOWN      PTCLDY    59  53  80 SE6       29.98S                  
BROOKINGS      PTCLDY    59  52  77 SE9       30.00R                  
SISSETON         N/A     56  54  93 S5        29.96F                  
$$
 
SDZ017-020-022-023-036>040-048>070-020900-
SOUTHEAST SOUTH DAKOTA
  
CITY           SKY/WX    TMP DP  RH WIND       PRES   REMARKS
SIOUX FALLS    CLEAR     59  55  87 E6        29.98R                  
HURON          MOCLDY    62  58  86 SE8       29.95S                  
MITCHELL       PTCLDY    62  57  83 SE6       29.97R                  
YANKTON        PTCLDY    63  55  77 E7        29.95R                  
$$
 
ABBREVIATIONS USED IN REMARKS
   TC - TEMPERATURE IN CELSIUS
  WCI - WIND CHILL INDEX
   HX - HEAT INDEX
  VSB - VISIBILITY



012 
ASUS43 KFSD 020810
RWRFSD

WEATHER ROUNDUP FOR SE SOUTH DAKOTA/SW MINNESOTA/NW IOWA
NATIONAL WEATHER SERVICE SIOUX FALLS SD
300 AM CDT THU JUL 02 2015

NOTE: "FAIR" INDICATES FEW OR NO CLOUDS BELOW 12,000 FEET WITH NO
SIGNIFICANT WEATHER AND OR OBSTRUCTIONS TO VISIBILITY.


SDZ038>040-050-052>070-020900-
SOUTHEAST SOUTH DAKOTA
  
CITY           SKY/WX    TMP DP  RH WIND       PRES   REMARKS
BROOKINGS      PTCLDY    59  52  77 SE9       30.00R                  
CHAMBERLAIN    NOT AVBL                                               
HURON          MOCLDY    62  58  86 SE8       29.95S                  
MADISON        FAIR      57  57 100 SE7       29.99R                  
MITCHELL       PTCLDY    62  57  83 SE6       29.97R                  
SIOUX FALLS    CLEAR     59  55  87 E6        29.98R                  
WINNER         CLOUDY    69  63  81 SE3       29.97R                  
YANKTON        PTCLDY    63  55  77 E7        29.95R                  
$$

MNZ071-072-080-081-089-090-097-098-020900-
SOUTHWEST MINNESOTA
  
CITY           SKY/WX    TMP DP  RH WIND       PRES   REMARKS
FAIRMONT       CLEAR     54  45  71 SE3       29.99F                  
JACKSON        CLEAR     52  50  93 SE5       30.00F                  
LUVERNE        CLEAR     59  54  82 CALM      29.99S                  
MARSHALL       CLEAR     55  48  76 S6        29.98S                  
MONTEVIDEO     CLEAR     54  52  94 SE3       30.00F                  
PIPESTONE      CLOUDY    57  55  94 SE6       29.99S                  
REDWOOD FALLS  CLEAR     56  52  86 CALM      29.99F                  
TRACY          CLEAR     57  50  77 S6        29.99F                  
WINDOM         CLEAR     55  50  82 CALM      30.00F                  
WORTHINGTON    CLEAR     54  48  82 E5        30.00S                  
$$

IAZ001>003-012>014-020>022-031-032-NEZ013-014-SDZ071-020900-
NORTHWEST IOWA
  
CITY           SKY/WX    TMP DP  RH WIND       PRES   REMARKS
ESTHERVILLE    CLEAR     50  49  96 E6        29.99F                  
SIOUX CITY     CLEAR     61  53  75 E8        29.96R                  
SPENCER        CLEAR     53  49  86 E3        29.99F                  
$$
 
ABBREVIATIONS USED IN REMARKS
   TC - TEMPERATURE IN CELSIUS
  WCI - WIND CHILL INDEX
   HX - HEAT INDEX
  VSB - VISIBILITY


Return to Home page


Western Regional Climate Center, wrcc@dri.edu